Location: Lawrence
(38.9720°N, 95.2350°W)
Time: 09:07:36
(UTC-05:00)

ISS - Visible Passes

Search period start: 24 March 2017 00:00
Search period end: 03 April 2017 00:00
Orbit: 399 x 409 km, 51.6° (Epoch: 24 March)

Date Brightness Start Highest point End Pass type
(mag) Time Alt. Az. Time Alt. Az. Time Alt. Az.
24 Mar -2.1 05:24:19 27° SE 05:24:19 27° SE 05:25:58 10° SE visible
25 Mar -1.5 06:08:03 12° SSW 06:08:03 12° SSW 06:08:30 10° SSW visible
25 Mar -1.8 21:06:13 10° SSW 21:07:12 17° S 21:07:12 17° S visible
26 Mar -2.0 20:14:59 10° SSE 20:16:53 15° SE 20:18:21 12° E visible
26 Mar -1.5 21:49:51 10° WSW 21:51:05 21° WSW 21:51:05 21° WSW visible
27 Mar -4.0 20:57:23 10° SW 21:00:38 78° SE 21:01:59 32° ENE visible
28 Mar -3.2 20:05:18 10° SSW 20:08:18 36° SE 20:11:20 10° ENE visible
28 Mar -1.8 21:42:02 10° W 21:44:49 25° NNW 21:45:17 24° NNW visible
29 Mar -2.6 20:49:10 10° WSW 20:52:17 42° NNW 20:55:25 10° NE visible
29 Mar -0.3 22:28:03 10° NW 22:28:19 11° NW 22:28:19 11° NW visible
30 Mar -1.0 21:34:37 10° WNW 21:36:42 16° NNW 21:38:27 11° NNE visible
31 Mar -1.5 20:41:25 10° W 20:44:02 22° NNW 20:46:40 10° NNE visible
01 Apr -0.8 21:27:36 10° NNW 21:28:40 11° NNW 21:29:43 10° N visible
02 Apr -1.0 20:34:01 10° NW 20:35:53 14° NNW 20:37:44 10° NNE visible
